^^
Station Historical Data
Daily Summary for November 6, 2017 Units:  English    Metric   Both
« Previous Day
Next Day »
Daily Weekly Monthly Yearly Custom
  High: Low: Average:
Temperature: 65.2 °F 45.1 °F 58.5 °F
Dew Point: 60.6 °F 39.3 °F 55.2 °F
Humidity: 97% 75% 89%
Wind Speed: 8.0mph 0.0mph 2.6mph
Wind Gust: 16.0mph - -
Wind- - SSW
Pressure: 30.12 in 29.88 in -
Precipitation: 0.00 in    
Historical Graphs
 
 
Tabular Data for November 6, 2017
Time Temperature Dew Point Pressure Wind Wind Speed Wind Gust Humidity Rainfall Rate (Hourly) Conditions
00:10 58.6 °F 57.8 °F 30.03 in SSW 1.0 mph 6.0 mph 97% 0.00 in CLR
00:20 58.6 °F 57.8 °F 30.02 in South 5.0 mph 6.0 mph 97% 0.00 in CLR
00:30 58.6 °F 57.8 °F 30.02 in SSW 1.0 mph 6.0 mph 97% 0.00 in CLR
00:40 58.6 °F 57.8 °F 30.01 in SSW 1.0 mph 7.0 mph 97% 0.00 in CLR
00:50 58.6 °F 57.8 °F 30.01 in South 1.0 mph 6.0 mph 97% 0.00 in CLR
01:00 58.6 °F 57.8 °F 30.01 in Calm   5.0 mph 97% 0.00 in CLR
01:10 58.6 °F 57.8 °F 30.01 in Calm   4.0 mph 97% 0.00 in CLR
01:20 58.6 °F 57.8 °F 30.00 in South 1.0 mph 4.0 mph 97% 0.00 in CLR
01:30 58.5 °F 57.7 °F 30.00 in SSW 2.0 mph 4.0 mph 97% 0.00 in CLR
01:40 58.6 °F 57.8 °F 30.00 in South 1.0 mph 6.0 mph 97% 0.00 in CLR
02:00 58.8 °F 58.0 °F 29.99 in South 5.0 mph 9.0 mph 97% 0.00 in CLR
02:10 58.9 °F 58.1 °F 29.99 in SSW 3.0 mph 10.0 mph 97% 0.00 in OVC
02:20 59.0 °F 58.2 °F 30.00 in South 3.0 mph 12.0 mph 97% 0.00 in OVC
02:30 59.1 °F 58.2 °F 29.99 in SSW 3.0 mph 13.0 mph 97% 0.00 in OVC
02:40 59.1 °F 58.2 °F 29.99 in SSW 5.0 mph 9.0 mph 97% 0.00 in OVC
02:49 59.2 °F 58.3 °F 29.98 in SSW 8.0 mph 12.0 mph 97% 0.00 in OVC
03:00 59.3 °F 58.4 °F 29.98 in South 5.0 mph 9.0 mph 97% 0.00 in OVC
03:10 59.5 °F 58.4 °F 29.97 in SSW 6.0 mph 10.0 mph 96% 0.00 in OVC
03:20 59.5 °F 58.4 °F 29.97 in South 1.0 mph 7.0 mph 96% 0.00 in OVC
03:30 59.6 °F 58.4 °F 29.97 in South 6.0 mph 10.0 mph 96% 0.00 in OVC
03:40 59.7 °F 58.6 °F 29.97 in South 5.0 mph 14.0 mph 96% 0.00 in OVC
03:50 59.9 °F 58.8 °F 29.96 in South 3.0 mph 12.0 mph 96% 0.00 in OVC
04:00 60.0 °F 58.6 °F 29.96 in SSW 2.0 mph 12.0 mph 95% 0.00 in OVC
04:10 60.1 °F 58.7 °F 29.96 in South 5.0 mph 15.0 mph 95% 0.00 in CLR
04:19 60.1 °F 58.7 °F 29.96 in SSW 5.0 mph 15.0 mph 95% 0.01 in RA
04:30 60.2 °F 58.8 °F 29.95 in SW 3.0 mph 13.0 mph 95% 0.00 in
04:39 60.2 °F 58.8 °F 29.95 in South 3.0 mph 13.0 mph 95% 0.00 in
04:50 60.3 °F 58.9 °F 29.95 in South 3.0 mph 12.0 mph 95% 0.00 in
04:59 60.3 °F 58.9 °F 29.95 in South 8.0 mph 12.0 mph 95% 0.00 in
05:10 60.3 °F 58.9 °F 29.95 in South 6.0 mph 15.0 mph 95% 0.00 in OVC
05:20 60.4 °F 59.0 °F 29.95 in SSW 2.0 mph 12.0 mph 95% 0.00 in OVC
05:30 60.5 °F 59.1 °F 29.95 in SW 2.0 mph 12.0 mph 95% 0.00 in OVC
05:40 60.6 °F 59.2 °F 29.94 in South 5.0 mph 14.0 mph 95% 0.00 in OVC
05:50 60.5 °F 59.1 °F 29.94 in SSW 2.0 mph 13.0 mph 95% 0.00 in OVC
06:00 60.5 °F 59.0 °F 29.94 in South 6.0 mph 13.0 mph 95% 0.00 in OVC
06:10 60.4 °F 59.0 °F 29.93 in SSW 5.0 mph 13.0 mph 95% 0.00 in OVC
06:20 60.4 °F 59.0 °F 29.93 in South 7.0 mph 14.0 mph 95% 0.00 in OVC
06:30 60.4 °F 59.0 °F 29.92 in SSW 5.0 mph 10.0 mph 95% 0.00 in OVC
06:40 60.4 °F 59.0 °F 29.92 in South 2.0 mph 12.0 mph 95% 0.00 in OVC
06:50 60.5 °F 59.1 °F 29.92 in SW 6.0 mph 13.0 mph 95% 0.00 in OVC
07:00 60.7 °F 59.3 °F 29.93 in South 5.0 mph 13.0 mph 95% 0.00 in OVC
07:10 60.7 °F 59.3 °F 29.93 in South 3.0 mph 12.0 mph 95% 0.00 in CLR
07:20 60.8 °F 59.4 °F 29.93 in SSW 6.0 mph 12.0 mph 95% 0.00 in CLR
07:30 60.9 °F 59.4 °F 29.93 in SSW 5.0 mph 9.0 mph 95% 0.00 in CLR
07:40 60.9 °F 59.5 °F 29.93 in SSW 5.0 mph 12.0 mph 95% 0.00 in CLR
07:50 60.9 °F 59.5 °F 29.92 in SSW 3.0 mph 8.0 mph 95% 0.00 in CLR
07:59 60.9 °F 59.5 °F 29.93 in SSW 5.0 mph 13.0 mph 95% 0.00 in CLR
08:09 61.0 °F 59.6 °F 29.92 in SSW 2.0 mph 13.0 mph 95% 0.00 in CLR
08:20 61.0 °F 59.6 °F 29.93 in South 3.0 mph 14.0 mph 95% 0.00 in CLR
08:30 61.1 °F 59.6 °F 29.94 in SW 5.0 mph 12.0 mph 95% 0.00 in CLR
08:40 61.1 °F 59.7 °F 29.94 in SW 6.0 mph 12.0 mph 95% 0.00 in CLR
08:50 61.1 °F 59.7 °F 29.94 in SW 3.0 mph 10.0 mph 95% 0.00 in CLR
09:00 61.0 °F 59.9 °F 29.94 in SW 6.0 mph 14.0 mph 96% 0.00 in CLR
09:10 60.9 °F 59.8 °F 29.94 in SSW 6.0 mph 10.0 mph 96% 0.00 in -RA
09:20 60.9 °F 59.8 °F 29.94 in SSW 1.0 mph 8.0 mph 96% 0.00 in -RA
09:30 60.9 °F 59.8 °F 29.94 in SW 2.0 mph 7.0 mph 96% 0.00 in -RA
09:39 60.9 °F 59.8 °F 29.93 in SSW 3.0 mph 7.0 mph 96% 0.00 in -RA
09:50 60.9 °F 59.8 °F 29.93 in SSW 2.0 mph 8.0 mph 96% 0.00 in -RA
10:00 60.9 °F 59.8 °F 29.93 in South 6.0 mph 8.0 mph 96% 0.00 in -RA
10:10 61.0 °F 59.6 °F 29.93 in South 3.0 mph 8.0 mph 95% 0.00 in OVC
10:20 61.1 °F 59.7 °F 29.93 in South 3.0 mph 8.0 mph 95% 0.00 in OVC
10:30 61.1 °F 59.7 °F 29.92 in South 3.0 mph 7.0 mph 95% 0.00 in OVC
10:40 61.3 °F 59.9 °F 29.92 in SSW 5.0 mph 9.0 mph 95% 0.00 in OVC
10:50 61.5 °F 59.8 °F 29.92 in SSW 5.0 mph 9.0 mph 94% 0.00 in OVC
11:00 61.7 °F 60.0 °F 29.90 in Calm   8.0 mph 94% 0.00 in OVC
11:10 61.8 °F 59.8 °F 29.89 in SSW 1.0 mph 5.0 mph 93% 0.00 in OVC
11:20 62.1 °F 60.0 °F 29.92 in SW 1.0 mph 6.0 mph 93% 0.00 in OVC
11:30 62.1 °F 59.7 °F 29.91 in SSW 1.0 mph 8.0 mph 92% 0.00 in OVC
11:40 62.2 °F 59.8 °F 29.91 in SW 3.0 mph 7.0 mph 92% 0.00 in OVC
11:50 62.3 °F 59.9 °F 29.91 in SW 1.0 mph 7.0 mph 92% 0.00 in OVC
12:00 62.4 °F 59.7 °F 29.91 in WSW 2.0 mph 8.0 mph 91% 0.00 in OVC
12:10 62.4 °F 59.7 °F 29.91 in SW 3.0 mph 9.0 mph 91% 0.00 in -DZ
12:20 62.5 °F 59.5 °F 29.89 in Calm   8.0 mph 90% 0.00 in -DZ
12:30 62.6 °F 59.6 °F 29.88 in SSW 3.0 mph 5.0 mph 90% 0.00 in -DZ
12:40 62.8 °F 59.8 °F 29.88 in South 2.0 mph 4.0 mph 90% 0.00 in -DZ
12:50 62.9 °F 59.6 °F 29.89 in SW 2.0 mph 4.0 mph 89% 0.00 in -DZ
12:59 62.9 °F 59.6 °F 29.89 in SSW 1.0 mph 5.0 mph 89% 0.00 in -DZ
13:10 63.0 °F 59.7 °F 29.89 in SSW 2.0 mph 5.0 mph 89% 0.00 in BKN
13:20 63.2 °F 59.9 °F 29.89 in SSW 2.0 mph 5.0 mph 89% 0.00 in BKN
13:30 63.6 °F 59.7 °F 29.89 in SW 3.0 mph 6.0 mph 87% 0.00 in BKN
13:40 64.5 °F 60.6 °F 29.89 in SW 1.0 mph 5.0 mph 87% 0.00 in BKN
13:50 65.2 °F 60.6 °F 29.89 in SW 1.0 mph 7.0 mph 85% 0.00 in BKN
14:00 64.8 °F 59.9 °F 29.90 in SW 3.0 mph 9.0 mph 84% 0.00 in BKN
14:10 64.6 °F 60.0 °F 29.90 in South 2.0 mph 6.0 mph 85% 0.00 in BKN
14:20 64.5 °F 59.9 °F 29.90 in SSW 1.0 mph 6.0 mph 85% 0.00 in BKN
14:30 64.4 °F 60.1 °F 29.90 in SSW 2.0 mph 6.0 mph 86% 0.00 in BKN
14:40 64.4 °F 60.1 °F 29.90 in Calm   5.0 mph 86% 0.00 in BKN
14:50 64.3 °F 60.0 °F 29.90 in Calm   6.0 mph 86% 0.00 in BKN
15:00 64.2 °F 59.9 °F 29.90 in SSW 1.0 mph 5.0 mph 86% 0.00 in BKN
15:09 64.1 °F 59.8 °F 29.90 in SW 3.0 mph 7.0 mph 86% 0.00 in BKN
15:20 64.0 °F 59.7 °F 29.90 in SSW 1.0 mph 7.0 mph 86% 0.00 in BKN
15:40 63.8 °F 59.9 °F 29.90 in South 2.0 mph 7.0 mph 87% 0.00 in BKN
15:50 63.6 °F 60.0 °F 29.90 in SSW 1.0 mph 4.0 mph 88% 0.00 in BKN
15:59 63.5 °F 59.8 °F 29.89 in Calm   4.0 mph 88% 0.00 in BKN
16:10 63.4 °F 59.8 °F 29.90 in SW 1.0 mph 4.0 mph 88% 0.00 in -RA
16:20 63.3 °F 60.0 °F 29.91 in Calm   4.0 mph 89% 0.00 in -RA
16:30 63.0 °F 60.0 °F 29.91 in SW 2.0 mph 4.0 mph 90% 0.00 in -RA
16:40 62.8 °F 59.8 °F 29.92 in SW 1.0 mph 3.0 mph 90% 0.00 in -RA
16:49 62.7 °F 60.1 °F 29.93 in SW 3.0 mph 6.0 mph 91% 0.00 in -RA
16:59 62.9 °F 59.7 °F 29.94 in SW 2.0 mph 11.0 mph 89% 0.00 in -RA
17:10 62.0 °F 57.1 °F 29.95 in NNW 2.0 mph 16.0 mph 84% 0.00 in BKN
17:20 60.9 °F 55.0 °F 29.97 in NNW 2.0 mph 10.0 mph 81% 0.00 in BKN
17:30 59.8 °F 53.6 °F 29.97 in ESE 2.0 mph 12.0 mph 80% 0.00 in BKN
17:40 59.2 °F 53.3 °F 29.97 in NE 1.0 mph 6.0 mph 81% 0.00 in BKN
17:49 58.6 °F 52.8 °F 29.97 in North 2.0 mph 7.0 mph 81% 0.00 in BKN
18:00 58.0 °F 52.6 °F 29.98 in NNE 3.0 mph 10.0 mph 82% 0.00 in BKN
18:10 57.6 °F 52.2 °F 29.99 in NE 3.0 mph 8.0 mph 82% 0.00 in BKN
18:20 57.0 °F 51.2 °F 29.99 in North 3.0 mph 10.0 mph 81% 0.00 in BKN
18:30 56.2 °F 49.4 °F 30.00 in NNW 2.0 mph 12.0 mph 78% 0.00 in BKN
18:40 55.7 °F 48.9 °F 30.01 in NNE 1.0 mph 10.0 mph 78% 0.00 in BKN
18:50 55.2 °F 48.5 °F 30.02 in North 1.0 mph 8.0 mph 78% 0.00 in BKN
19:00 54.9 °F 47.8 °F 30.02 in NNE 1.0 mph 8.0 mph 77% 0.00 in BKN
19:09 54.6 °F 47.6 °F 30.02 in NNW 3.0 mph 12.0 mph 77% 0.00 in BKN
19:19 54.3 °F 47.2 °F 30.03 in NNE 3.0 mph 12.0 mph 77% 0.00 in BKN
19:30 53.8 °F 46.4 °F 30.03 in NNE 1.0 mph 12.0 mph 76% 0.00 in BKN
19:39 53.4 °F 46.0 °F 30.03 in North 2.0 mph 12.0 mph 76% 0.00 in BKN
19:50 53.0 °F 45.2 °F 30.05 in NNW 3.0 mph 9.0 mph 75% 0.00 in BKN
20:00 52.6 °F 44.9 °F 30.06 in North 1.0 mph 13.0 mph 75% 0.00 in BKN
20:09 52.2 °F 44.5 °F 30.06 in NNE 1.0 mph 9.0 mph 75% 0.00 in BKN
20:20 51.8 °F 44.5 °F 30.07 in North 1.0 mph 7.0 mph 76% 0.00 in BKN
20:30 51.3 °F 44.0 °F 30.08 in North 2.0 mph 10.0 mph 76% 0.00 in BKN
20:40 50.8 °F 43.5 °F 30.08 in NNW 2.0 mph 9.0 mph 76% 0.00 in BKN
20:50 50.5 °F 43.2 °F 30.09 in North 2.0 mph 8.0 mph 76% 0.00 in BKN
21:00 49.9 °F 42.6 °F 30.09 in West 2.0 mph 6.0 mph 76% 0.00 in BKN
21:10 49.1 °F 42.2 °F 30.10 in ENE 1.0 mph 7.0 mph 77% 0.00 in BKN
21:20 48.6 °F 42.0 °F 30.10 in Calm   5.0 mph 78% 0.00 in BKN
21:30 48.3 °F 42.1 °F 30.11 in North 2.0 mph 6.0 mph 79% 0.00 in BKN
21:39 48.1 °F 41.6 °F 30.11 in North 2.0 mph 10.0 mph 78% 0.00 in BKN
21:50 47.8 °F 41.6 °F 30.11 in North 2.0 mph 6.0 mph 79% 0.00 in BKN
22:00 47.6 °F 41.4 °F 30.11 in North 2.0 mph 8.0 mph 79% 0.00 in BKN
22:09 47.5 °F 41.3 °F 30.11 in North 3.0 mph 12.0 mph 79% 0.00 in CLR
22:20 47.2 °F 41.0 °F 30.11 in NNE 3.0 mph 6.0 mph 79% 0.00 in CLR
22:30 47.0 °F 40.8 °F 30.11 in NNW 1.0 mph 9.0 mph 79% 0.00 in CLR
22:40 46.6 °F 40.8 °F 30.10 in NNE 1.0 mph 4.0 mph 80% 0.00 in CLR
22:50 46.4 °F 40.9 °F 30.11 in NNW 1.0 mph 5.0 mph 81% 0.00 in CLR
23:00 46.2 °F 40.4 °F 30.11 in NW 2.0 mph 10.0 mph 80% 0.00 in CLR
23:20 45.8 °F 40.0 °F 30.11 in North 2.0 mph 7.0 mph 80% 0.00 in CLR
23:30 45.7 °F 40.2 °F 30.11 in NNE 2.0 mph 10.0 mph 81% 0.00 in CLR
23:40 45.5 °F 39.7 °F 30.11 in Calm   12.0 mph 80% 0.00 in CLR
23:50 45.3 °F 39.5 °F 30.11 in NW 1.0 mph 8.0 mph 80% 0.00 in CLR
23:59 45.1 °F 39.3 °F 30.12 in North 2.0 mph 7.0 mph 80% 0.00 in RA
TarryTown NY Weather
Compliments of Weather Underground - 1.75 mb